Location: Big Basin
(33.9615°N, 106.9734°W)
Time: 05:18:01
(UTC+00:00)

Daily predictions for brighter satellites

Satellite Brightness Start Highest point End
(mag) Time Altitude Azimuth Time Altitude Azimuth Time Altitude Azimuth
NOSS 3-2 (C) 3.5 00:19:48 10° SW 00:24:31 57° NW 00:29:56 10° NNE
IRS-1C 4.5 00:21:25 10° SE 00:26:23 42° ENE 00:31:21 10° N
Cosmos 1354 Rocket 4.1 00:21:31 10° S 00:26:41 60° ESE 00:31:52 10° NNE
ATLAS 5 CENTAUR R/B 4.4 00:21:14 10° S 00:26:44 50° ESE 00:46:59 10° NE
USA 290 3.1 00:24:32 10° N 00:27:24 28° ENE 00:30:14 10° SE
Cosmos 1697 Rocket 2.7 00:23:59 10° S 00:29:31 69° ESE 00:35:06 10° NNE
ATLAS CENTAUR R/B 1.3 00:28:46 10° N 00:31:42 33° ENE 00:34:32 10° SE
CZ-2D R/B 3.4 00:29:07 10° SE 00:31:56 32° ENE 00:34:46 10° N
Cosmos 1782 4.2 00:29:00 10° SSW 00:32:21 37° W 00:35:43 10° NNW
Cosmos 1602 Rocket 3.7 00:28:12 10° N 00:32:29 53° E 00:36:41 10° SSE
YAOGAN 1 4.3 00:33:02 10° E 00:34:42 12° ENE 00:36:23 10° NE
SKYMED 2 4.5 00:31:02 10° NE 00:34:49 29° E 00:38:36 10° SSE
IRIDIUM 104 4.3 00:31:47 10° N 00:36:58 63° E 00:42:07 10° SSE
SMAP 3.0 00:33:43 10° SSE 00:38:21 76° ENE 00:43:00 10° N
Landsat 7 3.7 00:39:08 10° SSE 00:43:43 65° ENE 00:48:20 10° N
IRIDIUM 114 4.3 00:40:52 10° N 00:46:06 79° E 00:51:19 10° S
Gbstr 26 Del rocket 4.1 00:43:13 10° WSW 00:47:04 32° NW 00:50:32 10° NNE
Cosmos-2242 4.3 00:45:24 10° SE 00:48:25 19° E 00:50:38 13° NE
Cosmos 1743 3.1 00:50:18 10° NNW 00:53:29 54° W 00:56:37 10° S
IRIDIUM 103 4.4 00:50:01 10° N 00:55:16 84° W 01:00:28 10° S
Meteor 1-20 Rocket 4.1 00:50:14 10° N 00:55:42 81° E 01:01:11 10° S
EXPRESS MD2 2.4 00:54:14 10° WSW 00:56:31 68° NW 00:58:35 18° NE
BREEZE-M DEB (TANK) 3.3 00:52:30 10° WSW 00:58:54 58° NW 01:00:58 17° NE
BREEZE-M DEB (TANK) 4.4 00:48:01 10° WNW 01:00:34 74° SW 01:04:39 10° SE
Helios 1A Rocket 3.6 00:59:45 21° ENE 01:00:44 24° E 01:03:30 10° SSE
Cosmos 372 Rocket 4.4 00:56:59 10° S 01:01:48 42° ESE 01:06:00 13° NE
Cosmos 1867 4.1 00:59:11 10° NNW 01:04:12 37° NE 01:09:11 10° ESE
Cosmos 1655 Rocket 4.2 00:58:31 10° N 01:04:29 47° E 01:10:25 10° SSE
Aureole 1 Rocket 3.3 01:01:29 10° S 01:05:09 46° E 01:09:04 14° NNE
Cosmos 1825 Rocket 3.5 01:01:52 10° N 01:06:09 61° E 01:10:22 10° SSE
Cosmos 2151 3.8 01:05:09 10° NNW 01:09:12 53° W 01:13:14 10° S
ARIANE 5 R/B 3.0 01:08:21 10° S 01:13:19 64° WSW 01:18:23 10° NNW
Cosmos 2297 Rocket 2.5 01:08:28 10° NNW 01:14:07 72° WSW 01:19:44 10° SSE
IRS-P3 4.1 01:10:44 10° SSE 01:16:02 88° ENE 01:21:23 10° NNW
Cosmos 2058 Rocket 3.2 01:13:06 10° SSE 01:17:23 49° E 01:20:44 16° NNE
CZ-4 R/B 4.2 01:14:03 10° SSE 01:17:56 64° ENE 01:21:50 10° N
NOSS 2-3 (C) 4.0 01:15:14 10° SW 01:18:40 43° WNW 01:21:05 17° N
USA 81 4.2 01:18:49 10° N 01:23:54 47° E 01:28:57 10° SSE
USA 238 DEB 3.5 01:18:30 10° SW 01:24:25 78° WNW 01:29:47 15° NNE
SPOT 1/Viking Rocket 3.4 01:19:18 10° SSE 01:24:27 73° ENE 01:29:39 10° N
USA 238 3.5 01:18:35 10° SW 01:24:32 79° WNW 01:29:52 16° NNE
BlueWalker 3 2.1 01:21:12 10° NW 01:24:48 66° SW 01:28:00 13° SSE
Hubble Space Telescope 2.1 01:25:10 10° SW 01:28:18 24° SSE 01:29:22 21° SE
Cosmos 1980 Rocket 2.3 01:26:30 10° SSW 01:32:10 79° WNW 01:36:57 15° NNE
CZ-2D R/B 3.3 01:28:35 10° SSE 01:32:47 72° ENE 01:36:57 10° N
PSLV R/B 3.6 01:29:38 10° SSE 01:37:16 10° N 01:37:20 10° N
Cosmos 1076 Rocket 3.3 01:29:18 10° N 01:33:37 80° E 01:37:55 10° S
Cosmos 2084 Rocket 3.2 01:30:11 10° NNW 01:34:23 68° ENE 01:36:16 31° SE
MOS 1 Rocket 4.3 01:30:06 10° S 01:34:41 50° W 01:39:33 10° NNW
Cosmos 1607 4.2 01:29:17 10° NNW 01:35:31 73° WSW 01:41:48 10° SSE
Meteor 1-5 Rocket 4.1 01:32:45 10° N 01:38:08 87° W 01:43:40 10° S
CZ-4C R/B 3.1 01:31:24 10° NNW 01:39:08 84° ENE 01:48:15 10° SSE
Okean 1 2.9 01:35:52 10° S 01:39:14 65° ESE 01:39:14 65° ESE
Cosmos 2369 3.6 01:35:28 10° S 01:41:06 66° ESE 01:43:37 34° NE
Resurs 1-3 3.4 01:37:56 10° SSE 01:42:12 74° ENE 01:46:30 10° N
BREEZE M DEB (TANK) 2.4 01:37:55 10° NW 01:43:48 56° NNE 01:43:48 56° NNE
COSMO-SKYMED 1 2.9 01:40:54 16° N 01:44:08 60° WNW 01:48:10 10° SSW
Cosmos 2263 Rocket 2.2 01:46:28 10° N 01:52:01 52° ENE 01:52:20 52° E
Sakura Rocket 3.8 01:51:13 10° WSW 01:54:42 32° S 01:54:42 32° S
COSMOS 2455 3.0 01:50:30 10° S 01:56:14 49° ESE 01:56:21 49° ESE
Nadezhda 2 Rocket 4.3 01:51:57 10° N 01:58:00 62° E 02:04:00 10° SSE
Cosmos 1538 Rocket 3.9 01:53:11 10° NNW 01:58:28 68° ENE 01:59:08 61° ESE
Cosmos 1553 Rocket 3.9 01:54:16 10° S 02:00:21 90° S 02:05:46 14° N
Cosmos 2227 Rocket 2.6 01:59:45 10° NNW 02:05:19 63° WSW 02:10:52 10° S
Cosmos 2333 Rocket 4.3 02:00:48 10° SSE 02:01:21 12° SSE 02:01:21 12° SSE
YAOGAN 1 3.5 02:06:00 10° S 02:10:04 47° W 02:14:11 10° NNW
SL-19 R/B 4.3 02:06:11 10° S 02:11:25 70° WSW 02:16:54 10° NNW
SL-24 R/B - RUBIN 2 3.9 02:06:39 10° SSW 02:12:15 82° SSE 02:12:15 82° SSE
Meteor 2-6 Rocket 4.5 02:28:06 10° SSW 02:33:20 65° W 02:33:20 65° W
SL-16 R/B 3.9 02:50:03 10° SSW 02:52:17 25° SSW 02:52:17 25° SSW
H-2A R/B 3.9 03:04:14 10° WSW 03:44:54 - ESE 03:05:46 28° WSW
CZ-3 R/B 4.2 08:19:09 10° W 09:25:10 65° SE 09:35:18 10° ESE
CZ-3 Stage 3 4.3 10:07:38 55° ESE 10:07:38 55° ESE 10:26:06 10° E
COSMOS 2406 3.4 11:44:05 60° N 11:44:05 60° N 11:48:42 10° NNE
OAO 3 Copernicus 4.5 11:45:52 68° ESE 11:45:52 68° ESE 11:50:27 10° E
Cosmos 2082 Rocket 4.4 11:52:33 12° N 11:52:33 12° N 11:52:58 10° N
Centaur D AC-28 3.9 11:46:17 36° WSW 11:48:30 40° SW 11:53:20 10° SE
Tiangong 0.4 11:51:40 22° E 11:51:40 22° E 11:53:02 10° E
SL-16 R/B 4.1 11:48:48 10° N 11:53:29 26° ENE 11:58:09 10° ESE
